Vertical_Velocity
6 4 2 -3 -9 -5 -0 -5 -0 0 0 0 2 -3 -9 1 -5 -10 -0 4 1 -0 -3 -2 2 -1 -3 -0 -1 -4 4 9 6 8 -0 -1 -0 3 2 1 -1 2 1 3 -1 -0 -1 1 -2
4 1 3 -0 -8 -1 -4 -2 -1 -2 -1 2 0 1 -2 -0 -0 -0 0 1 3 -0 -2 -2 -1 -1 1 -2 0 2 3 4 5 7 1 -0 -0 3 -1 4 -0 -1 4 -3 -0 -1 -0 1 -1
11 3 -3 -4 -1 -3 -3 -1 -2 1 1 0 -1 1 -1 1 -0 0 -1 -2 0 1 -3 1 -0 2 4 4 2 2 1 -1 -3 3 -1 6 3 -0 5 2 0 0 3 -1 -2 1 -3 0 -2
-1 1 -0 -6 -2 -4 -3 -2 -1 2 1 0 -0 -2 1 3 -3 -0 -2 0 2 -0 0 1 1 1 4 -3 1 2 4 5 -7 -8 5 12 -1 -0 -1 -1 0 2 2 -1 -1 -0 3 -0 -3
-1 2 -1 -0 -2 -2 -1 -0 -1 -0 0 1 2 2 0 4 1 2 -1 1 0 1 0 0 7 5 1 -2 2 -1 6 6 5 5 -24 4 -5 -2 0 -0 0 -0 -1 0 0 -4 3 0 -2
1 1 -1 -0 -0 -1 -1 -1 -0 -0 2 2 -2 -1 -0 4 1 -0 0 1 5 -1 2 -0 3 5 -1 -0 -12 3 -2 6 0 -2 -24 -5 -7 1 1 -0 -0 1 -2 -3 3 -2 1 -0 -6
-4 -2 -2 -1 -1 1 -2 1 -1 -1 0 0 -3 -2 2 4 3 -2 -1 3 6 2 1 1 1 7 4 -3 -3 -12 -12 3 2 0 -1 -5 3 -1 2 0 0 -1 -2 0 3 -2 -4 -0 -4
-2 -4 1 -1 -1 -3 -0 0 2 -0 2 0 1 -2 -0 -3 1 -0 2 5 5 -1 2 -4 -2 2 -1 -1 -7 2 -1 3 0 0 -1 -6 3 2 -0 1 -1 -3 -0 -2 1 1 -0 2 -3
2 -2 -0 -2 -1 -4 2 -2 3 2 -4 1 0 -2 -3 -0 3 3 1 2 10 11 0 1 -1 4 -2 2 3 11 6 2 2 -1 -3 2 2 -1 2 1 -1 -1 1 0 0 -1 -0 1 -1
-1 -1 -4 -3 -2 -2 -1 -2 -5 -3 0 0 -1 5 0 4 0 -2 -1 -2 2 2 -3 3 1 -1 -1 0 2 0 2 -3 -0 -1 0 1 0 -1 -0 1 1 -1 1 1 -1 1 -0 -0 -1
-1 -3 -1 -1 -2 -3 -1 1 1 -4 -0 -4 -13 -0 -1 2 1 -1 0 0 -3 1 -2 1 2 -2 0 -1 -0 -0 -1 -0 -1 1 1 -2 -1 2 -1 -0 3 2 -0 1 -1 -1 -0 0 1
-3 -0 -2 1 0 1 -1 1 1 -1 -2 -2 5 4 -4 1 0 -2 2 1 -3 0 -0 0 1 -2 0 -1 -0 0 3 1 3 3 -2 1 1 1 0 0 2 3 -2 1 2 1 -0 -2 -1
-1 0 1 -1 3 2 2 -0 -5 2 -1 3 -1 1 3 0 -0 -1 -1 5 -2 -2 -1 0 2 -1 -1 -1 1 -0 0 2 -2 -0 1 3 0 -0 0 1 0 0 -0 1 1 0 -0 1 -1
-3 -0 -1 2 1 0 -5 1 -3 2 2 6 -2 1 4 2 -3 -1 1 0 2 0 -1 1 2 -0 0 2 2 1 -1 -3 1 2 1 1 1 1 0 1 2 1 0 3 2 2 2 1 1
-1 -3 1 0 0 -1 -5 -2 1 2 5 1 2 4 2 1 3 0 1 1 0 3 -2 -1 3 -1 -1 -0 2 0 0 1 -1 -3 -2 2 2 1 1 2 1 -0 1 1 -0 2 -1 -0 1
-2 -5 -1 -2 0 1 -4 -2 1 6 -7 2 2 1 0 4 1 -2 0 1 0 3 -2 -2 2 -2 -1 -2 -0 1 1 0 -1 1 -1 1 -1 0 1 1 1 -0 -1 0 1 -1 -0 -1 -1
0 -4 1 2 0 -1 -5 0 1 3 5 2 2 -0 -0 2 3 1 -0 3 -2 2 -3 -1 2 -3 -1 1 0 1 1 -1 -0 1 1 -2 -0 1 -1 1 -0 0 1 0 -1 -1 1 2 2
-3 2 2 -1 -2 -2 -0 1 3 2 -0 0 1 2 0 0 -1 -1 -1 0 -1 0 -0 5 5 -6 1 -0 4 3 1 3 -1 -1 -1 -2 -1 1 0 0 1 0 1 0 1 -0 0 2 2
-5 -1 -2 1 1 -6 -0 0 -1 1 2 1 -0 -0 1 -1 1 0 1 3 1 3 0 0 -1 -2 0 -3 -2 -0 -0 -2 1 -1 -1 -1 0 -1 0 0 -1 -0 1 1 1 1 1 1 1
-0 -1 1 1 0 -9 -0 2 0 0 -3 -5 -3 2 0 2 -0 1 2 2 -2 -2 -4 0 -3 4 -2 1 0 0 0 0 3 2 0 1 1 0 -0 0 -1 -0 -1 -0 0 1 -0 -1 0
1 -6 0 -7 1 -2 -3 -2 2 0 1 2 1 -2 -1 -5 -5 -4 -4 -4 0 -1 -2 -2 -3 -1 -3 1 2 4 4 2 1 -2 -1 -1 -0 -1 0 0 -0 1 1 1 1 1 -0 1 0
-1 -2 -2 -1 -4 -4 -2 -4 0 0 2 1 2 -1 0 3 1 -1 -3 -0 2 -1 3 3 1 1 -2 3 3 3 -4 -2 -2 -0 1 1 1 -0 0 1 -0 -0 -0 -1 0 1 0 0 -1
-5 -2 -2 -1 -1 -5 -4 -8 -3 -0 2 -1 -1 -2 -3 -2 -1 -3 -4 -2 -3 4 -2 -1 1 2 2 -3 -0 -1 -4 -2 -0 -1 -0 -1 1 2 0 1 1 0 -1 1 0 -0 -0 0 1
-2 -4 -3 -2 -2 -3 -0 -5 -5 -2 -6 1 0 -2 -4 -4 -2 3 0 1 1 2 8 2 -1 -1 1 1 -0 1 -3 -1 -1 -2 -2 -0 1 1 -0 -0 -0 2 0 -2 1 2 1 1 2
-2 -0 -1 -5 -4 -5 -0 1 -10 -1 -1 -2 -4 -4 -1 1 -1 0 -0 -0 0 -7 -3 -3 -5 -3 1 0 -4 -1 -3 -1 0 -2 -0 0 1 -3 -2 -1 -2 -3 1 -1 -1 -0 0 -0 -0
0 -6 -8 -6 -4 -5 -1 -3 -11 1 2 3 3 2 -1 -0 6 1 1 -0 -2 3 -1 0 0 -3 -5 -0 -2 -0 2 -2 -2 -1 -2 -1 -2 0 5 3 -0 -0 0 1 -1 -1 0 1 -0
-4 -4 -6 -6 -1 -3 -3 -7 -3 1 -0 -2 -1 1 1 4 6 4 7 8 8 1 1 -1 -2 1 0 -3 4 1 2 1 -3 -1 -1 3 2 -1 1 3 4 2 2 2 1 -1 -1 -0 1
-7 -5 -9 -3 -3 0 -2 -1 -7 0 1 0 -1 -0 0 1 3 3 3 1 -0 1 4 5 3 -2 2 6 -2 0 2 2 2 6 -3 5 -2 2 -1 3 1 1 1 2 1 -0 -0 -1 0
-2 1 -3 -9 -4 -6 -2 -10 -1 -0 0 0 1 0 0 0 0 1 1 3 2 1 0 4 5 4 2 3 2 6 -1 -2 4 -2 2 -2 2 -0 -2 1 4 1 -1 1 0 -1 1 -1 1
-0 -1 -3 -6 -2 -1 -4 -10 1 0 1 -0 1 1 1 0 1 0 1 1 3 3 2 2 2 5 -1 0 1 2 5 5 7 3 -1 2 -4 -1 -5 -2 -3 -3 -2 1 1 0 -1 -1 -2
Height
1491 1493 1497 1502 1515 1517 1519 1511 1503 1501 1501 1499 1500 1502 1504 1506 1510 1522 1510 1514 1518 1522 1526 1530 1534 1537 1540 1542 1544 1546 1547 1550 1551 1553 1555 1555 1556 1558 1558 1559 1561 1562 1563 1563 1563 1564 1565 1565 1566
1490 1493 1497 1499 1515 1523 1516 1504 1501 1497 1497 1498 1500 1502 1504 1508 1507 1508 1512 1515 1520 1523 1527 1531 1535 1537 1540 1543 1546 1548 1551 1552 1554 1555 1556 1557 1559 1560 1561 1562 1564 1565 1565 1565 1567 1567 1568 1568 1568
1489 1493 1495 1500 1513 1511 1510 1500 1494 1495 1496 1498 1500 1502 1505 1507 1508 1509 1513 1516 1521 1524 1528 1533 1536 1538 1542 1544 1548 1550 1553 1554 1555 1555 1558 1561 1561 1562 1563 1564 1565 1567 1567 1568 1569 1570 1570 1571 1570
1486 1493 1495 1501 1506 1499 1495 1492 1491 1496 1496 1497 1499 1503 1506 1506 1507 1511 1514 1518 1523 1526 1531 1535 1538 1541 1543 1546 1551 1552 1555 1556 1557 1559 1560 1562 1563 1565 1566 1567 1567 1568 1570 1571 1571 1572 1573 1572 1572
1485 1487 1498 1502 1498 1493 1490 1488 1488 1492 1492 1496 1498 1504 1507 1508 1509 1513 1516 1520 1524 1527 1532 1536 1539 1543 1545 1548 1551 1553 1556 1558 1559 1561 1563 1565 1565 1568 1569 1569 1569 1571 1572 1573 1574 1575 1575 1574 1575
1482 1482 1495 1502 1495 1489 1486 1486 1487 1490 1493 1495 1498 1502 1509 1510 1511 1515 1519 1522 1526 1529 1533 1537 1541 1544 1547 1551 1553 1557 1558 1561 1561 1562 1565 1566 1568 1569 1570 1571 1572 1573 1575 1576 1576 1577 1578 1577 1578
1473 1480 1485 1492 1491 1487 1483 1485 1487 1488 1492 1496 1497 1504 1510 1511 1513 1517 1521 1525 1528 1531 1534 1539 1543 1546 1549 1550 1554 1557 1559 1560 1563 1565 1566 1569 1570 1571 1572 1572 1574 1575 1577 1579 1579 1580 1581 1580 1581
1470 1474 1482 1483 1487 1487 1480 1483 1487 1487 1493 1495 1497 1502 1508 1508 1513 1518 1523 1527 1530 1533 1536 1540 1543 1546 1549 1551 1554 1558 1561 1563 1565 1566 1568 1571 1572 1572 1573 1574 1575 1577 1579 1581 1581 1582 1583 1583 1584
1468 1476 1479 1476 1480 1478 1478 1482 1488 1489 1491 1495 1498 1498 1501 1506 1513 1518 1523 1528 1531 1535 1537 1540 1544 1547 1550 1554 1558 1561 1563 1564 1566 1568 1571 1573 1574 1575 1576 1576 1578 1579 1581 1582 1583 1584 1586 1586 1586
1465 1473 1467 1465 1468 1471 1474 1477 1483 1489 1492 1495 1497 1500 1502 1508 1512 1517 1521 1527 1531 1535 1539 1542 1545 1549 1551 1555 1558 1561 1564 1566 1569 1570 1572 1573 1575 1577 1578 1579 1581 1582 1582 1584 1586 1587 1588 1588 1589
1461 1464 1464 1463 1464 1467 1473 1478 1480 1485 1492 1486 1490 1497 1503 1508 1513 1518 1523 1528 1531 1535 1539 1544 1547 1550 1553 1555 1559 1562 1565 1567 1569 1571 1573 1575 1577 1579 1580 1582 1583 1584 1585 1586 1587 1589 1590 1591 1591
1460 1461 1461 1461 1463 1466 1471 1475 1480 1481 1482 1483 1489 1489 1499 1506 1511 1517 1523 1527 1530 1535 1540 1544 1548 1551 1554 1557 1560 1563 1565 1568 1570 1572 1574 1576 1578 1580 1581 1583 1585 1586 1587 1588 1589 1590 1592 1593 1594
1458 1460 1462 1462 1462 1464 1469 1472 1476 1481 1482 1484 1492 1500 1504 1508 1513 1520 1524 1528 1531 1536 1540 1544 1549 1552 1554 1558 1560 1563 1566 1568 1571 1573 1575 1578 1579 1581 1582 1584 1586 1588 1589 1590 1591 1591 1593 1594 1596
1454 1458 1462 1463 1463 1464 1468 1474 1477 1484 1484 1485 1491 1500 1504 1508 1512 1519 1523 1528 1532 1536 1541 1545 1549 1552 1555 1559 1561 1564 1567 1569 1572 1574 1576 1578 1580 1582 1583 1585 1587 1588 1590 1591 1592 1593 1594 1595 1597
1452 1462 1463 1464 1463 1466 1466 1478 1479 1481 1486 1488 1496 1502 1507 1510 1514 1517 1523 1528 1532 1536 1541 1545 1549 1553 1556 1559 1562 1564 1568 1569 1572 1574 1577 1579 1580 1582 1584 1585 1587 1588 1590 1591 1592 1594 1595 1597 1598
1453 1461 1471 1464 1462 1465 1468 1483 1481 1482 1483 1490 1495 1501 1508 1511 1515 1519 1523 1528 1533 1537 1541 1546 1548 1553 1555 1559 1563 1565 1568 1569 1572 1574 1577 1579 1581 1583 1585 1586 1587 1589 1591 1592 1593 1595 1596 1598 1598
1453 1462 1468 1466 1462 1464 1468 1480 1480 1483 1487 1490 1495 1500 1507 1512 1516 1519 1524 1528 1533 1537 1542 1545 1549 1552 1555 1560 1562 1565 1567 1570 1572 1574 1576 1579 1581 1583 1585 1586 1587 1589 1591 1592 1594 1595 1597 1597 1598
1456 1459 1465 1467 1464 1465 1471 1479 1479 1483 1486 1488 1494 1499 1505 1510 1513 1518 1523 1528 1533 1537 1542 1545 1548 1552 1555 1559 1562 1565 1567 1570 1572 1574 1577 1579 1580 1582 1584 1585 1587 1588 1590 1592 1593 1595 1596 1597 1598
1444 1447 1459 1465 1463 1467 1473 1478 1480 1485 1490 1493 1497 1500 1504 1508 1514 1518 1523 1528 1532 1536 1540 1544 1548 1550 1554 1557 1561 1564 1566 1569 1571 1574 1576 1579 1580 1582 1584 1585 1586 1588 1590 1592 1593 1594 1595 1596 1597
1450 1460 1467 1466 1464 1470 1481 1482 1483 1484 1486 1490 1493 1498 1503 1508 1513 1517 1522 1527 1531 1534 1539 1543 1547 1550 1554 1557 1560 1564 1567 1570 1572 1574 1576 1578 1580 1582 1583 1585 1586 1587 1589 1591 1592 1594 1594 1596 1597
1453 1454 1463 1466 1466 1473 1480 1492 1490 1489 1489 1493 1498 1501 1505 1505 1509 1515 1520 1525 1528 1531 1536 1541 1545 1550 1553 1556 1559 1563 1566 1569 1571 1573 1575 1577 1579 1581 1582 1584 1585 1587 1588 1589 1591 1592 1594 1595 1596
1455 1456 1459 1466 1470 1490 1484 1501 1488 1489 1492 1494 1497 1498 1502 1504 1508 1513 1517 1521 1524 1529 1534 1539 1544 1548 1552 1555 1557 1560 1564 1567 1569 1571 1573 1576 1578 1579 1581 1583 1584 1586 1587 1588 1589 1590 1591 1593 1594
1455 1455 1458 1466 1476 1483 1485 1497 1488 1491 1492 1492 1494 1496 1498 1502 1506 1508 1512 1517 1522 1527 1531 1536 1541 1546 1549 1553 1555 1558 1561 1565 1568 1569 1571 1574 1576 1578 1579 1581 1582 1584 1585 1586 1587 1588 1589 1590 1592
1452 1459 1467 1474 1481 1497 1490 1496 1490 1490 1482 1487 1489 1491 1493 1497 1503 1507 1511 1516 1520 1525 1529 1532 1538 1542 1546 1550 1553 1555 1558 1561 1564 1566 1568 1570 1573 1575 1577 1579 1580 1581 1583 1584 1585 1586 1586 1587 1588
1451 1456 1488 1498 1503 1502 1502 1494 1485 1476 1476 1476 1481 1484 1488 1493 1498 1502 1506 1509 1515 1520 1525 1529 1534 1538 1542 1545 1548 1551 1554 1557 1559 1562 1564 1566 1569 1570 1573 1575 1576 1578 1580 1581 1581 1582 1583 1584 1585
1456 1463 1481 1510 1512 1501 1502 1498 1482 1479 1478 1477 1480 1485 1489 1493 1496 1499 1503 1507 1510 1515 1519 1524 1527 1532 1537 1540 1542 1546 1548 1551 1554 1557 1560 1562 1563 1566 1569 1571 1573 1574 1576 1577 1578 1578 1579 1580 1581
1460 1468 1469 1493 1504 1503 1502 1491 1480 1481 1481 1481 1483 1484 1487 1489 1495 1499 1503 1505 1508 1511 1515 1519 1523 1527 1531 1535 1538 1540 1543 1546 1549 1551 1554 1556 1559 1561 1564 1566 1568 1570 1572 1573 1574 1574 1575 1576 1577
1453 1463 1476 1488 1499 1499 1501 1494 1486 1478 1481 1486 1488 1488 1488 1489 1490 1492 1495 1498 1503 1507 1511 1515 1519 1523 1526 1530 1533 1536 1539 1541 1543 1546 1548 1550 1553 1556 1558 1560 1562 1564 1566 1567 1568 1569 1571 1571 1572
1461 1464 1473 1480 1488 1498 1505 1492 1480 1481 1487 1488 1490 1490 1488 1488 1488 1490 1492 1494 1497 1501 1505 1509 1514 1518 1521 1523 1527 1530 1533 1535 1538 1540 1543 1545 1547 1550 1551 1553 1555 1557 1559 1561 1562 1563 1564 1565 1566
1459 1462 1468 1477 1483 1495 1488 1481 1486 1488 1488 1489 1490 1490 1490 1488 1488 1488 1489 1491 1493 1496 1500 1503 1506 1510 1513 1516 1518 1521 1525 1528 1530 1534 1536 1538 1540 1542 1545 1547 1548 1550 1551 1552 1554 1555 1557 1558 1559